Regional Weather Roundup
Issued by NWS State College, PA

Home | Current Version | Previous Version | Graphics & Text | Print | Product List | Glossary Off
Versions: 1 2 3 4 5 6 7 8 9 10 11 12 13 14 15 16 17 18 19 20 21 22 23 24 25 26 27 28 29 30 31 32 33 34 35 36 37 38 39 40 41 42 43 44 45 46 47 48 49 50

142
ASUS41 KCTP 191510
RWRCTP

REGIONAL WEATHER ROUNDUP
NATIONAL WEATHER SERVICE STATE COLLEGE PA
1100 AM EDT TUE SEP 19 2017

Note: "fair" indicates few or no clouds below 12,000 feet with no
significant weather and/or obstructions to visibility.

* = STATION THAT DOES NOT REPORT PRECIPITATION /E.G. RAIN...SNOW...ETC/
    THUNDER OR FOG.

PAZ002>004-007>009-013>016-020>023-029>032-191600-
WESTERN PENNSYLVANIA

CITY           SKY/WX    TMP DP  RH WIND       PRES   REMARKS
ERIE           MOSUNNY   75  65  70 S12       30.03R
MEADVILLE      MOSUNNY   71  64  78 CALM      30.07R
FRANKLIN*      MOSUNNY   70  63  78 SE6       30.08F
NEW CASTLE     FAIR      75  66  73 VRB5      30.06S
BEAVER COUNTY  SUNNY     73  63  68 SE6       30.06S
BUTLER*        SUNNY     70  64  81 SE5       30.07F
PITTSBURGH INT MOSUNNY   73  64  73 SE7       30.05F
PITTSBURGH     SUNNY     71  62  73 VRB3      30.06S
INDIANA*       SUNNY     72  63  73 VRB5      30.11S
LATROBE        SUNNY     72  63  73 CALM      30.07S
WASHINGTON CO* SUNNY     72  64  78 E5        30.06S
$$

PAZ004>006-010>012-017>019-024>028-033>037-041-042-045-046-049>053-191600-
CENTRAL PENNSYLVANIA

CITY           SKY/WX    TMP DP  RH WIND       PRES   REMARKS
BRADFORD       MOSUNNY   66  60  81 E5        30.11F
DUBOIS         PTSUNNY   67  58  72 SE7       30.10S
CLEARFIELD     CLOUDY    69  60  73 N3        30.10S
JOHNSTOWN      CLOUDY    66  58  75 S5        30.11S
ALTOONA        PTSUNNY   69  61  75 NE3       30.10R
STATE COLLEGE  CLOUDY    66  61  82 CALM      30.10S
WILLIAMSPORT   CLOUDY    71  64  78 CALM      30.06S
SELINSGROVE    CLOUDY    69  65  86 NW7       30.07F
FT INDIANTOWN  CLOUDY    71  67  89 N8        30.04S
CAPITAL CITY   CLOUDY    72  64  76 N7        30.04S
HARRISBURG     CLOUDY    72  66  81 N6        30.03S
YORK           CLOUDY    70  66  87 N8        30.04S
$$

PAZ038>040-043-044-047-048-054-055-060>062-067>071-191600-
EASTERN PENNSYLVANIA

CITY           SKY/WX    TMP DP  RH WIND       PRES   REMARKS
SCRANTON       CLOUDY    71  63  75 NE9       30.07F
MOUNT POCONO   NOT AVBL
ALLENTOWN      PTSUNNY   75  65  70 NE13      30.02F
QUAKERTOWN*    PTSUNNY   73  66  78 NE12G17   30.02F
READING        PTSUNNY   75  68  78 VRB7      30.00F
LANCASTER      CLOUDY    72  68  87 NE10      30.02F
COATESVILLE    CLOUDY    72  66  83 NE7       30.02F
POTTSTOWN      PTSUNNY   74  68  81 NE9G18    30.01F
BLUE BELL      MOSUNNY   73  66  78 N5        30.00F
DOYLESTOWN     PTSUNNY   77  68  73 N12       29.99F
WILLOW GROVE   NOT AVBL
NORTH PHILA    MOSUNNY   80  67  64 NE15G25   29.98F
PHILADELPHIA   PTSUNNY   79  65  62 NE22      29.96F
$$




USA.gov is the U.S. government's official web portal to all federal, state and local government web resources and services.